Location: Appeville
(49.3218°N, 1.3427°W)
Time: 20:18:41
(UTC+00:00)

IRIDIUM 114 - Pass Details

Date: 08 December 2019
Orbit: 776 x 779 km, 86.4° (Epoch: 22 January)

Event Time Altitude Azimuth Distance (km) Brightness Sun altitude
Rises 07:00:46 0° 354° (N) 3,275 7.2 -7.3°
Reaches altitude 10° 07:03:08 10° 353° (N) 2,343 6.5 -7.0°
Maximum altitude 07:08:22 75° 269° (W) 809 4.3 -6.2°
Drops below altitude 10° 07:13:34 10° 185° (S) 2,323 7.1 -5.5°
Sets 07:15:54 0° 183° (S) 3,246 7.9 -5.2°
